timestamp,surface_pressure_avg,surface_temp_avg,battery_voltage,lat,long
2018-03-25 00:00:00+00:00,231.7931,1.61,12.65,47.84626,-54.09684
2018-03-25 00:10:00+00:00,233.7548,1.6,12.65,47.84626,-54.09684
2018-03-25 00:20:00+00:00,236.528,1.6,12.73,47.84626,-54.09684
2018-03-25 00:30:00+00:00,236.8698,1.6,12.73,47.84626,-54.09684
2018-03-25 00:40:00+00:00,237.8814,1.6,12.73,47.84626,-54.09684
2018-03-25 00:50:00+00:00,239.0631,1.6,12.73,47.84626,-54.09684
2018-03-25 01:00:00+00:00,245.7448,1.6,12.65,47.84626,-54.09684
2018-03-25 01:10:00+00:00,249.7881,1.6,12.65,47.84626,-54.09684
2018-03-25 01:20:00+00:00,247.3831,1.6,12.73,47.84626,-54.09684
2018-03-25 01:30:00+00:00,248.7231,1.6,12.73,47.84626,-54.09684
2018-03-25 01:40:00+00:00,252.5714,1.6,12.73,47.84626,-54.09684
2018-03-25 01:50:00+00:00,256.0697,1.6,12.73,47.84626,-54.09684
2018-03-25 02:00:00+00:00,256.073,1.6,12.65,47.84626,-54.09684
2018-03-25 02:10:00+00:00,261.3697,1.6,12.65,47.84626,-54.09684
2018-03-25 02:20:00+00:00,270.3631,1.6,12.73,47.84626,-54.09684
2018-03-25 02:30:00+00:00,279.4731,1.52,12.73,47.84626,-54.09684
2018-03-25 02:40:00+00:00,282.8331,1.5,12.73,47.84626,-54.09684
2018-03-25 02:50:00+00:00,290.6663,1.6,12.73,47.84626,-54.09684
2018-03-25 03:00:00+00:00,301.9863,1.6,12.65,47.84626,-54.09684
2018-03-25 03:10:00+00:00,307.3763,1.5,12.65,47.84626,-54.09684
2018-03-25 03:20:00+00:00,312.5181,1.5,12.73,47.84626,-54.09684
2018-03-25 03:30:00+00:00,315.4797,1.55,12.73,47.84626,-54.09684
2018-03-25 03:40:00+00:00,315.1863,1.5,12.73,47.84626,-54.09684
2018-03-25 03:50:00+00:00,318.588,1.5,12.73,47.84626,-54.09684
2018-03-25 04:00:00+00:00,326.113,1.5,12.65,47.84626,-54.09684
2018-03-25 04:10:00+00:00,325.923,1.48,12.65,47.84626,-54.09684
2018-03-25 04:20:00+00:00,325.158,1.49,12.73,47.84626,-54.09684
2018-03-25 04:30:00+00:00,332.9863,1.48,12.73,47.84626,-54.09684
2018-03-25 04:40:00+00:00,338.4514,1.4,12.73,47.84626,-54.09684
2018-03-25 04:50:00+00:00,336.678,1.4,12.73,47.84626,-54.09684
2018-03-25 05:00:00+00:00,341.7645,1.4,12.65,47.84626,-54.09684
2018-03-25 05:10:00+00:00,347.283,1.4,12.65,47.84626,-54.09684
2018-03-25 05:20:00+00:00,346.1813,1.4,12.73,47.84626,-54.09684
2018-03-25 05:30:00+00:00,341.8796,1.4,12.73,47.84626,-54.09684
2018-03-25 05:40:00+00:00,345.3263,1.4,12.73,47.84626,-54.09684
2018-03-25 05:50:00+00:00,350.1463,1.4,12.73,47.84626,-54.09684
2018-03-25 06:00:00+00:00,349.2913,1.3,12.65,47.84626,-54.09684
2018-03-25 06:10:00+00:00,346.5179,1.36,12.65,47.84626,-54.09684
2018-03-25 06:20:00+00:00,350.733,1.36,12.73,47.84626,-54.09684
2018-03-25 06:30:00+00:00,349.5746,1.3,12.73,47.84626,-54.09684
2018-03-25 06:40:00+00:00,343.2396,1.3,12.73,47.84626,-54.09684
2018-03-25 06:50:00+00:00,343.2013,1.3,12.73,47.84626,-54.09684
2018-03-25 07:00:00+00:00,344.513,1.3,12.65,47.84626,-54.09684
2018-03-25 07:10:00+00:00,331.9863,1.3,12.65,47.84626,-54.09684
2018-03-25 07:20:00+00:00,320.998,1.3,12.73,47.84626,-54.09684
2018-03-25 07:30:00+00:00,316.373,1.3,12.73,47.84626,-54.09684
2018-03-25 07:40:00+00:00,310.138,1.28,12.73,47.84626,-54.09684
2018-03-25 07:50:00+00:00,299.9964,1.28,12.73,47.84626,-54.09684
2018-03-25 08:00:00+00:00,294.483,1.29,12.65,47.84626,-54.09684
2018-03-25 08:10:00+00:00,292.4363,1.27,12.65,47.84626,-54.09684
2018-03-25 08:20:00+00:00,281.9498,1.2,12.73,47.84626,-54.09684
2018-03-25 08:30:00+00:00,271.648,1.2,12.73,47.84626,-54.09684
2018-03-25 08:40:00+00:00,266.7114,1.2,12.73,47.84626,-54.09684
2018-03-25 08:50:00+00:00,263.5448,1.18,12.73,47.84626,-54.09684
2018-03-25 09:00:00+00:00,253.5381,1.1,12.65,47.84626,-54.09684
2018-03-25 09:10:00+00:00,246.5697,1.1,12.65,47.84626,-54.09684
2018-03-25 09:20:00+00:00,246.2465,1.13,12.73,47.84626,-54.09684
2018-03-25 09:30:00+00:00,236.4015,1.1,12.73,47.84626,-54.09684
2018-03-25 09:40:00+00:00,230.8498,1.1,12.73,47.84626,-54.09684
2018-03-25 09:50:00+00:00,235.2381,1.1,12.73,47.84626,-54.09684
2018-03-25 10:00:00+00:00,232.7264,1.09,12.65,47.84626,-54.09684
2018-03-25 10:10:00+00:00,227.1131,1.1,12.65,47.84626,-54.09684
2018-03-25 10:20:00+00:00,229.1515,1.1,12.73,47.84626,-54.09684
2018-03-25 10:30:00+00:00,234.5814,1.1,12.73,47.84626,-54.09684
2018-03-25 10:40:00+00:00,231.8715,1.08,12.73,47.84626,-54.09684
2018-03-25 10:50:00+00:00,232.0948,1.07,12.73,47.84626,-54.09684
2018-03-25 11:00:00+00:00,232.8614,1.04,12.73,47.84626,-54.09684
2018-03-25 11:10:00+00:00,229.0547,1.04,12.73,47.84626,-54.09684
2018-03-25 11:20:00+00:00,226.6365,1.06,12.81,47.84626,-54.09684
2018-03-25 11:30:00+00:00,230.1014,1.08,12.73,47.84626,-54.09684
2018-03-25 11:40:00+00:00,232.8947,1.1,12.89,47.84626,-54.09684
2018-03-25 11:50:00+00:00,230.6264,1.07,12.97,47.84626,-54.09684
2018-03-25 12:00:00+00:00,227.7964,1.07,12.81,47.84626,-54.09684
2018-03-25 12:10:00+00:00,229.6281,1.1,12.65,47.84626,-54.09684
2018-03-25 12:20:00+00:00,227.5764,1.1,12.73,47.84626,-54.09684
2018-03-25 12:30:00+00:00,226.2931,1.09,12.73,47.84626,-54.09684
2018-03-25 12:40:00+00:00,228.3147,1.1,12.73,47.84626,-54.09684
2018-03-25 12:50:00+00:00,228.3647,1.1,12.73,47.84626,-54.09684
2018-03-25 13:00:00+00:00,221.4831,1.1,12.65,47.84626,-54.09684
2018-03-25 13:10:00+00:00,222.2664,1.1,12.65,47.84626,-54.09684
2018-03-25 13:20:00+00:00,231.4015,1.1,12.73,47.84626,-54.09684
2018-03-25 13:30:00+00:00,232.1081,1.18,12.73,47.84626,-54.09684
2018-03-25 13:40:00+00:00,230.7614,1.2,12.73,47.84626,-54.09684
2018-03-25 13:50:00+00:00,236.3698,1.2,12.73,47.84626,-54.09684
2018-03-25 14:00:00+00:00,243.5781,1.2,12.65,47.84626,-54.09684
2018-03-25 14:10:00+00:00,245.7314,1.2,12.65,47.84626,-54.09684
2018-03-25 14:20:00+00:00,243.8331,1.2,12.73,47.84626,-54.09684
2018-03-25 14:30:00+00:00,248.2631,1.22,12.73,47.84626,-54.09684
2018-03-25 14:40:00+00:00,253.5131,1.21,12.73,47.84626,-54.09684
2018-03-25 14:50:00+00:00,252.4731,1.24,12.73,47.84626,-54.09684
2018-03-25 15:00:00+00:00,255.1047,1.26,12.65,47.84626,-54.09684
2018-03-25 15:10:00+00:00,265.4364,1.29,12.65,47.84626,-54.09684
2018-03-25 15:20:00+00:00,274.2014,1.34,12.81,47.84626,-54.09684
2018-03-25 15:30:00+00:00,274.2297,1.35,12.73,47.84626,-54.09684
2018-03-25 15:40:00+00:00,280.3281,1.3,12.73,47.84626,-54.09684
2018-03-25 15:50:00+00:00,292.9948,1.36,12.73,47.84626,-54.09684
2018-03-25 16:00:00+00:00,298.9814,1.3,12.65,47.84626,-54.09684
2018-03-25 16:10:00+00:00,294.3846,1.3,12.65,47.84626,-54.09684
2018-03-25 16:20:00+00:00,298.633,1.3,12.73,47.84626,-54.09684
2018-03-25 16:30:00+00:00,308.3613,1.31,12.73,47.84626,-54.09684
2018-03-25 16:40:00+00:00,311.5647,1.4,12.73,47.84626,-54.09684
2018-03-25 16:50:00+00:00,304.2863,1.4,12.73,47.84626,-54.09684
2018-03-25 17:00:00+00:00,309.3163,1.4,12.65,47.84626,-54.09684
2018-03-25 17:10:00+00:00,318.368,1.4,12.65,47.84626,-54.09684
2018-03-25 17:20:00+00:00,316.8163,1.49,12.73,47.84626,-54.09684
2018-03-25 17:30:00+00:00,313.9581,1.41,12.73,47.84626,-54.09684
2018-03-25 17:40:00+00:00,319.573,1.4,12.73,47.84626,-54.09684
2018-03-25 17:50:00+00:00,321.1613,1.44,12.73,47.84626,-54.09684
2018-03-25 18:00:00+00:00,316.9246,1.49,12.65,47.84626,-54.09684
2018-03-25 18:10:00+00:00,314.8414,1.4,12.65,47.84626,-54.09684
2018-03-25 18:20:00+00:00,317.4713,1.39,12.73,47.84626,-54.09684
2018-03-25 18:30:00+00:00,316.5296,1.4,12.73,47.84626,-54.09684
2018-03-25 18:40:00+00:00,316.813,1.4,12.73,47.84626,-54.09684
2018-03-25 18:50:00+00:00,318.968,1.4,12.73,47.84626,-54.09684
2018-03-25 19:00:00+00:00,319.4446,1.42,12.65,47.84626,-54.09684
2018-03-25 19:10:00+00:00,315.488,1.4,12.65,47.84626,-54.09684
2018-03-25 19:20:00+00:00,312.4264,1.4,12.73,47.84626,-54.09684
2018-03-25 19:30:00+00:00,308.5647,1.4,12.73,47.84626,-54.09684
2018-03-25 19:40:00+00:00,306.728,1.4,12.73,47.84626,-54.09684
2018-03-25 19:50:00+00:00,303.1447,1.41,12.73,47.84626,-54.09684
2018-03-25 20:00:00+00:00,294.2814,1.5,12.65,47.84626,-54.09684
2018-03-25 20:10:00+00:00,284.0797,1.49,12.65,47.84626,-54.09684
2018-03-25 20:20:00+00:00,281.2197,1.4,12.73,47.84626,-54.09684
2018-03-25 20:30:00+00:00,280.1331,1.4,12.73,47.84626,-54.09684
2018-03-25 20:40:00+00:00,270.9648,1.48,12.73,47.84626,-54.09684
2018-03-25 20:50:00+00:00,263.1931,1.47,12.73,47.84626,-54.09684
2018-03-25 21:00:00+00:00,260.2281,1.46,12.65,47.84626,-54.09684
2018-03-25 21:10:00+00:00,256.0081,1.4,12.65,47.84626,-54.09684
2018-03-25 21:20:00+00:00,246.5497,1.4,12.73,47.84626,-54.09684
2018-03-25 21:30:00+00:00,241.6931,1.4,12.73,47.84626,-54.09684
2018-03-25 21:40:00+00:00,237.5064,1.4,12.73,47.84626,-54.09684
2018-03-25 21:50:00+00:00,232.4965,1.39,12.73,47.84626,-54.09684
2018-03-25 22:00:00+00:00,229.2298,1.39,12.65,47.84626,-54.09684
2018-03-25 22:10:00+00:00,229.4198,1.4,12.65,47.84626,-54.09684
2018-03-25 22:20:00+00:00,224.9447,1.4,12.73,47.84626,-54.09684
2018-03-25 22:30:00+00:00,220.6947,1.35,12.73,47.84626,-54.09684
2018-03-25 22:40:00+00:00,222.4448,1.34,12.73,47.84626,-54.09684
2018-03-25 22:50:00+00:00,224.4014,1.3,12.73,47.84626,-54.09684
2018-03-25 23:00:00+00:00,222.1698,1.25,12.65,47.84626,-54.09684
2018-03-25 23:10:00+00:00,221.0764,1.23,12.65,47.84626,-54.09684
2018-03-25 23:20:00+00:00,221.8981,1.2,12.73,47.84626,-54.09684
2018-03-25 23:30:00+00:00,221.4198,1.2,12.73,47.84626,-54.09684
2018-03-25 23:40:00+00:00,220.7998,1.2,12.73,47.84626,-54.09684
2018-03-25 23:50:00+00:00,223.0514,1.18,12.73,47.84626,-54.09684
